Regional Weather Roundup
Issued by NWS

Home | Current Version | Previous Version | Text Only | Print | Product List | Glossary Off
Versions: 1 2 3 4 5 6 7 8 9 10 11 12 13 14 15 16 17 18 19 20 21 22 23 24 25 26 27 28 29 30 31 32 33 34 35 36 37 38 39 40 41 42 43 44 45 46 47 48 49 50

000
ASUS43 KMKX 201611
RWRWI

WISCONSIN REGIONAL WEATHER ROUNDUP
NATIONAL WEATHER SERVICE MILWAUKEE/SULLIVAN WI
1100 AM CDT WED AUG 20 2014

NOTE: "FAIR" INDICATES FEW OR NO CLOUDS BELOW 12,000 FEET WITH NO
SIGNIFICANT WEATHER AND/OR OBSTRUCTIONS TO VISIBILITY.

WIZ001-002-006>008-014>016-023>028-201700-
NORTHWEST WISCONSIN

CITY           SKY/WX    TMP DP  RH WIND       PRES   REMARKS
SUPERIOR ARPT  CLOUDY    67  62  85 CALM      29.90R
ASHLAND        CLOUDY    68  60  75 CALM      29.90S
HAYWARD        CLOUDY    66  60  81 W3        29.92R
SIREN          PTSUNNY   67  61  80 SW3       29.91S
RICE LAKE      MOSUNNY   67  59  76 CALM      29.92S
LADYSMITH      CLOUDY    66  60  81 W3        29.93S
EAU CLAIRE     MOSUNNY   68  62  81 NE6       29.89F
MENOMONIE      MOSUNNY   70  61  72 NE5       29.91R
NEW RICHMOND   MOSUNNY   69  64  82 E10       29.88F
OSCEOLA        MOSUNNY   71  65  83 NE8       29.90F
$$

WIZ003>005-009-010-017-018-201700-
NORTH CENTRAL WISCONSIN

CITY           SKY/WX    TMP DP  RH WIND       PRES   REMARKS
WOODRUFF       CLOUDY    66  60  82 N3        29.91S
RHINELANDER    CLOUDY    64  57  78 NE6       29.91R
EAGLE RIVER    CLOUDY    64  58  81 N6        29.90F
LAND O LAKES   CLOUDY    65  59  81 W7        29.92S
PHILLIPS       CLOUDY    63  58  86 CALM      29.91R
TOMAHAWK       CLOUDY    65  59  80 CALM      29.91R
MEDFORD        CLOUDY    64  60  85 CALM      29.91S
MERRILL        CLOUDY    64  60  88 CALM      29.91R
$$

WIZ029-030-035-036-043>047-201700-
CENTRAL WISCONSIN

CITY           SKY/WX    TMP DP  RH WIND       PRES   REMARKS
WAUSAU         CLOUDY    64  59  83 CALM      29.89R
MOSINEE        CLOUDY    63  61  94 CALM      29.92R
MARSHFIELD     CLOUDY    65  60  84 N6        29.90S
STEVENS POINT  CLOUDY    62  58  86 NW3       29.90S
WAUPACA        CLOUDY    69  61  76 NW8       29.90R
WAUTOMA        MOSUNNY   74  65  73 VRB3      29.88R
WISC RAPIDS    CLOUDY    66  60  81 VRB3      29.91R
CAMP DOUGLAS   MOSUNNY   72  72 100 VRB2      29.89R
$$

WIZ011>013-019>022-031-037>040-048>050-201700-
NORTHEAST WISCONSIN

CITY           SKY/WX    TMP DP  RH WIND       PRES   REMARKS
ANTIGO         CLOUDY    66  60  81 N5        29.91R
STURGEON BAY   CLOUDY    64  59  82 N3        29.88R
GREEN BAY      CLOUDY    67  61  81 N3        29.89R
MANITOWOC      CLOUDY    70  62  76 NW7       29.88R
APPLETON       PTSUNNY   66  61  82 W8        29.89R
CLINTONVILLE   CLOUDY    64  59  82 NW6       29.89R
OSHKOSH        CLOUDY    71  63  75 N5        29.88R
$$

WIZ032>034-041-042-053>061-201700-
SOUTHWEST WISCONSIN

CITY           SKY/WX    TMP DP  RH WIND       PRES   REMARKS
LA CROSSE      MOSUNNY   74  66  76 CALM      29.90R
SPARTA         MOSUNNY   72  63  72 W5        29.90R
VIROQUA        CLOUDY    75  65  70 SW3       29.92R
BOSCOBEL       PTSUNNY   80  65  59 VRB3      29.89R HX  82
PRAIRIE DU CHI PTSUNNY   76  66  71 S3        29.90R
PLATTEVILLE    FAIR      76  70  79 SW9       29.92R
$$

WIZ056-057-062-063-064-067-068-201700-
SOUTH CENTRAL WISCONSIN

CITY           SKY/WX    TMP DP  RH WIND       PRES   REMARKS
BARABOO/DELLS  MOSUNNY   77  62  59 W5        29.89R
LONE ROCK      MOSUNNY   82  66  58 CALM      29.88S HX  84
WATERTOWN      MOSUNNY   76  66  71 W3        29.88R
MADISON        MOSUNNY   78  64  61 W9        29.89R HX  80
MIDDLETON      FAIR      80  65  58 W8        29.89R HX  82
MONROE         MOSUNNY   79  64  61 SW7       29.90S HX  81
JANESVILLE     SUNNY     81  63  54 W9        29.88R HX  82
$$

WIZ051-052-058>065-066-070>072-201700-
SOUTHEAST WISCONSIN

CITY           SKY/WX    TMP DP  RH WIND       PRES   REMARKS
MILWAUKEE      MOSUNNY   77  63  61 NW7       29.86S
WAUKESHA       MOSUNNY   75  63  64 W8        29.89S
MILWAUKEE/TIMM PTSUNNY   75  63  64 W9        29.88R
RACINE         SUNNY     79  64  60 VRB7      29.89R HX  81
BURLINGTON     MOSUNNY   77  64  63 W8        29.89R
KENOSHA        SUNNY     79  66  64 W10       29.88S HX  81
FOND DU LAC    PTSUNNY   73  64  73 N6        29.88R
SHEBOYGAN      PTSUNNY   74  63  68 NW7       29.86F
WEST BEND      PTSUNNY   72  61  68 W8        29.88R
JUNEAU         MOSUNNY   75  39  28 W6        29.89S
$$

LSZ147-162-201700-
LAKE SUPERIOR

STATION/POSITION TIME  TEMP    WIND        PRES    WAVE
                       AIR SEA DIR/SP/G            HT/PER
                 (UTC) (F)     (DEG/KT/KT) (MB)    (FT/S)
W MID LAKE BUOY  1550   58 56  270/  6/  6 1012.1R   1
DEVILS ISLAND    1600   63     260/  3/  6 1012.1F
PORT WING        1500   63     350/  5/  5 1012.2S
SAXON HARBOR     1500   64        CALM     1012.5
$$

LMZ867-665-643>646-201700-
LAKE MICHIGAN

STATION/POSITION TIME  TEMP    WIND        PRES    WAVE
                       AIR SEA DIR/SP/G            HT/PER
                 (UTC) (F)     (DEG/KT/KT) (MB)    (FT/S)
N MID LAKE BUOY  1550   61 62  310/  6/  8 1010.3R   1/ 3
NORTHPORT PIER   1500   62     330/  5/  6 1010.8R
KEWAUNEE LAKESHO 1500   66     320/  4/  6 1010.1R
SHEBOYGAN LAKESH 1600   65 64   50/  8/  8 1011.4R
ATWATER BUOY     1600   69      80/  6     1012.6R
MILWAUKEE LAKESH 1500   70      70/  6/  6   N/A
S MID LAKE BUOY  1550   68 67  280/  2/  4 1011.7R   0
KENOSHA   LAKESH 1600   78     310/ 10/ 12 1011.2S
$$

TC  - TEMPERATURE IN CELSIUS
VSB - VISIBILITY IN STATUTE MILES
WCI - WIND CHILL INDEX
HX  - HEAT INDEX




USA.gov is the U.S. government's official web portal to all federal, state and local government web resources and services.